STARLINK-11235, 60726

Orbit data source: Space-Track

STARLINK-11235, 60726 is a payload satellite owned by SpaceX/Seattle (US) in LEO that was launched on Wed, 28 Aug 2024 UTC via an FALCON 9 launch vehicle from the Air Force Eastern Test Range (AFETR). Payload-class satellites include a variety of spacecraft equipped with specific instruments for various scientific and technological missions. These include communications satellites like Starlink; space stations such as the ISS; scientific satellites like the Hubble; Earth observation satellites from companies like Planet Labs, Umbra, and HawkEye 360; GPS; miniature CubeSats for education and research; and military/defense satellites.

Loading next visibility...
Identifier
60726, 2024-152G
Orbit
LEO
Last TLE update
9 hours ago
Origin
Manufacturer
SpaceX/Seattle
Mission
Operational Commercial Communications
Bus & Motor
STARLINK V2M, Unknown motor
Mass
730 kg wet, ~700 kg dry
Launch date (UTC)
2024-08-28 (10 months ago)
Launch vehicle
FALCON 9
Launch site
Air Force Eastern Test Range (AFETR)
Object type
Payload
Rocket body
Debris
Shape & HBR
Box + 2 Pan, 29 m
Radar Cross Section
36.964 m², Large (>1 m²)

Expand to show TLE details & history

TLE from 9 hours ago
0 STARLINK-11235
1 60726U 24152G   25186.57792590  .00002853  00000-0  28402-4 0  9999
2 60726  53.1580 254.4057 0000959  73.8229 286.2895 15.69703420 50154
Epoch: 2025-07-05T13:52Z
TLE epoch observation values (Epoch: 2025-07-05T13:52:12.797Z)
Latitude
0.00001°
Longitude
122.53843°
Altitude
360.479 km
Speed
7.694 km/s
True Right ascension
16h 57m 37s
True Declination
0° 00' 00"
Sunlit
Object was in full shadow at epoch
Visualization orbit readout
Latitude
-17.04998°
Longitude
107.46497°
Altitude
364.452 km
Speed
7.691 km/s
Apparent Right ascension
18h 45m 37s
Apparent Declination
-40° 23' 18"
Sunlit
Object is in full shadow
Visualization observer readout
Local Sidereal Time
10:53:08
Azimuth
111.649° ESE
Elevation
-43.716°
Doppler factor
1
Orbital elements
Apogee altitude
360.653 km
Perigee altitude
359.36 km
Semi-major axis
6,738.144 km
Eccentricity
0.0001
Inclination
53.158°
RAAN
254.4057°
Arg. of periapsis
73.8229°
True anomaly
Unknown
Mean anomaly
286.2895°
Eccentric anomaly
Unknown
Mean motion
3.92403 °/min
Orbital period
91.74 mins
BSTAR
0.000028402
Loading maneuver chart data...
Loading SW <> Apogee altitude chart data...
Loading historical data...
Loading historical data...
Loading historical data...
Loading historical data...
Loading historical data...
Loading historical data...
Loading historical data...

STARLINK-11235 Visibility forecast

Observer location: undefined°, undefined°

Span
Click to sort rows by Start time (UTC) header in descending order
Start Az.
Max El. time (UTC)
Max El. Az.
Max El.
End time (UTC)
End Az.
5 mins2025-07-06 06:50:52.447Z204.048° SW2025-07-06 06:52:52.447Z158.786° S31.453°2025-07-06 06:55:52.447Z64.657° ENE
|